Regional Weather Roundup
Issued by NWS

Home | Current Version | Previous Version | Text Only | Print | Product List | Glossary Off
Versions: 1 2 3 4 5 6 7 8 9 10 11 12 13 14 15 16 17 18 19 20 21 22 23 24 25 26 27 28 29 30 31 32 33 34 35 36 37 38 39 40 41 42 43 44 45 46 47 48 49 50

000
ASUS45 KBOI 310010
RWRID

IDAHO REGIONAL WEATHER ROUNDUP
NATIONAL WEATHER SERVICE BOISE ID
600 PM MDT SUN AUG 30 2015

NOTE: "FAIR" INDICATES FEW OR NO CLOUDS BELOW 12000 FEET
WITH NO SIGNIFICANT WEATHER AND/OR OBSTRUCTIONS TO VISIBILITY

IDZ012-014-310100-
SOUTHWEST IDAHO


CITY           SKY/WX    TMP DP  RH WIND       PRES   REMARKS
BOISE          SUNNY     78  37  22 NW5       29.95F
CALDWELL       SUNNY     81  39  22 NE7       29.94F
MOUNTAIN HOME  SUNNY     82  30  15 NW14      29.92S
$$

IDZ016-017-310100-
SOUTHCENTRAL IDAHO


CITY           SKY/WX    TMP DP  RH WIND       PRES   REMARKS
BURLEY         MOSUNNY   76  34  21 W8        29.97S
JEROME         SUNNY     77  32  19 W7        29.98S
TWIN FALLS     SUNNY     79  31  17 NW10      29.98S
$$

IDZ019>023-310100-
SOUTHEAST IDAHO


CITY           SKY/WX    TMP DP  RH WIND       PRES   REMARKS
IDAHO FALLS    MOSUNNY   78  31  17 SW17G24   29.97S
POCATELLO      MOSUNNY   79  35  20 W22G28    29.98R
REXBURG        MOSUNNY   78  29  16 W22G29    29.96F
$$

IDZ006-010-011-018-031-032-310100-
CENTRAL IDAHO MOUNTAINS


CITY           SKY/WX    TMP DP  RH WIND       PRES   REMARKS
MCCALL         CLOUDY    57  41  55 NW13      30.05R
HAILEY         MOSUNNY   72  30  21 SW12      30.04F
STANLEY          N/A     65  26  23 VRB6      30.09R
SALMON         CLOUDY    73  28  19 W17G28    29.85R
CHALLIS        CLOUDY    73  21  14 VRB7G22   29.95S
$$

IDZ002-004-006-007-026-310100-
NORTHERN IDAHO


CITY           SKY/WX    TMP DP  RH WIND       PRES   REMARKS
LEWISTON       CLOUDY    70  49  47 VRB3      29.96S
LOWELL           N/A     58  56  93 CALM      30.05R
COEUR D`ALENE  MOSUNNY   64  48  55 S16G30    29.92S
MULLAN PASS    FOG       40  40 100 VRB5      30.02R VSB 1/2
$$


USA.gov is the U.S. government's official web portal to all federal, state and local government web resources and services.